Jaipur / Sanganer, India

7:20 AM IST on January 20, 2017 (GMT +0530)
Jaipur

Weather History for VIJP - November, 2012

Change the Weather History Date:

Wednesday, November 7, 2012

  Actual Average Record
Temperature  
Mean Temperature 74 °F -  
Max Temperature 90 °F - - ()
Min Temperature 59 °F - - ()
Cooling Degree Days 10    
Growing Degree Days 24 (Base 50)    
Moisture  
Dew Point 48 °F    
Average Humidity 46    
Maximum Humidity 77    
Minimum Humidity 12    
Precipitation  
Precipitation 0.00 in - - ()
Sea Level Pressure  
Sea Level Pressure 29.94 in    
Wind  
Wind Speed 2 mph ()    
Max Wind Speed 10 mph    
Max Gust Speed -    
Visibility 1.2 miles    
Events      
T = Trace of Precipitation, MM = Missing Value Source: Averaged Metar Reports

Daily Weather History Graph

Daily Weather History Graph

Search for Another Location

Airport or City:

Trip Planner

Search our weather history database for the weather conditions in past years. The results will help you decide how hot, cold, wet, or windy it might be!

Date:

Astronomy

Nov. 07, 2012 Rise Set
Actual Time 6:40 AM IST 5:40 PM IST
Civil Twilight 6:16 AM IST 6:04 PM IST
Nautical Twilight 5:48 AM IST 6:31 PM IST
Astronomical Twilight 5:21 AM IST 6:59 PM IST
Moon No Moon Rise 12:57 PM IST (11/7)
Length of Visible Light 11h 47m
Length of Day
10h 59m
Waning Gibbous, 47% of the Moon is Illuminated
Nov 7
Waning Gibbous
Nov 14
New
Nov 20
First Quarter
Nov 28
Full
Dec 6
Last Quarter

Hourly Weather History & Observations

Time (IST) Temp. Dew Point Humidity Pressure Visibility Wind Dir Wind Speed Gust Speed Precip Events Conditions
12:00 AM 66.2 °F 51.8 °F 60% 29.98 in 0.7 mi Variable 1.2 mph - N/A   Smoke
1:00 AM 64.4 °F 51.8 °F 64% 29.98 in 0.7 mi Variable 1.2 mph - N/A   Smoke
2:00 AM 62.6 °F 51.8 °F 68% 29.98 in 0.7 mi Calm Calm - N/A   Smoke
3:00 AM 60.8 °F 51.8 °F 72% 29.95 in 0.7 mi Calm Calm - N/A   Smoke
4:00 AM 60.8 °F 51.8 °F 72% 29.95 in 0.7 mi Calm Calm - N/A   Smoke
5:00 AM 60.8 °F 51.8 °F 72% 29.95 in 0.7 mi Calm Calm - N/A   Smoke
5:30 AM 60 °F 53 °F 70% 29.93 in 1 mi Calm Calm - -   Mist
5:30 AM 60.8 °F 51.8 °F 72% 29.95 in 0.7 mi Calm Calm - N/A   Smoke
6:00 AM 59.0 °F 51.8 °F 77% 29.98 in 0.7 mi Calm Calm - N/A   Mist
7:00 AM 59.0 °F 51.8 °F 77% 29.98 in 0.7 mi Calm Calm - N/A   Mist
8:00 AM 64.4 °F 53.6 °F 68% 30.01 in 0.6 mi Calm Calm - N/A   Mist
8:30 AM 71.6 °F 55.4 °F 57% 30.01 in 0.7 mi Calm Calm - N/A   Mist
10:00 AM 77.0 °F 55.4 °F 47% 30.01 in 0.9 mi West 9.2 mph - N/A   Smoke
11:00 AM 78.8 °F 55.4 °F 44% 30.01 in 1.2 mi West 9.2 mph - N/A   Smoke
11:30 AM 82 °F 51 °F 23% 29.92 in 1 mi West 6.9 mph - -   Smoke
12:00 PM 82.4 °F 50.0 °F 32% 29.98 in 1.2 mi WSW 10.4 mph - N/A   Smoke
3:00 PM 86.0 °F 42.8 °F 22% 29.89 in 1.9 mi NW 6.9 mph - N/A   Smoke
4:00 PM 84.2 °F 42.8 °F 23% 29.89 in 1.9 mi WNW 8.1 mph - N/A   Haze
4:30 PM 84.2 °F 42.8 °F 23% 29.89 in 1.9 mi WNW 9.2 mph - N/A   Haze
5:00 PM 82.4 °F 42.8 °F 25% 29.89 in 2.5 mi NW 5.8 mph - N/A   Haze
5:30 PM 81 °F 37 °F 12% 29.83 in 2 mi WNW 4.6 mph - -   Haze
5:30 PM 80.6 °F 41.0 °F 24% 29.89 in 2.5 mi WNW 4.6 mph - N/A   Haze
6:30 PM 77.0 °F 41.0 °F 28% 29.89 in 1.6 mi Calm Calm - N/A   Smoke
7:00 PM 71.6 °F 42.8 °F 35% 29.92 in 1.6 mi Calm Calm - N/A   Smoke
8:00 PM 69.8 °F 42.8 °F 38% 29.92 in 1.2 mi Calm Calm - N/A   Smoke
8:30 PM 69 °F 44 °F 29% 29.89 in 1 mi Calm Calm - -   Smoke
9:00 PM 68.0 °F 44.6 °F 43% 29.92 in 1.2 mi Calm Calm - N/A   Smoke
10:00 PM 71.6 °F 44.6 °F 38% 29.95 in 1.2 mi Calm Calm - N/A   Smoke
11:30 PM 70 °F 44 °F 27% 29.88 in 1 mi Calm Calm - -   Smoke